Capitol Logistics 3267


KDAB
Daytona Beach International Airport
Daytona Beach, Florida, US
KMIA
Miami International Airport
Miami, Florida, US

Activity Log

Date Flight Route Aircraft Duration
08/30/2020 CPX3267 MYRA V3 MLB V437 PHK V267 BRIKL SF34 1h 31m
01/04/2020 CPX3267 OMN HILEY7 SF34 1h 09m
11/05/2019 CPX667 MYRA V3 MLB V437 PHK V267 BRIKL SF34 1h 24m

Route Details

Aircraft Information
Primary: Saab 340AF
Backup: Not Available
Route Data
Distance: 207nm
Sched. Duration: 1h 39m
Avg. Duration: 1h 21m (-19m)
Times Flown: 3
Recm'd Route: MYRA V3 MLB V437 PHK V267 BRIKL
Planned Altitude: 17,000ft
Origin Wx: KDAB 190653Z 00000KT 10SM CLR 04/03 A3026 RMK AO2 SLP246 T00390028
Dest. Wx: KMIA 190653Z 35003KT 10SM CLR 16/11 A3020 RMK AO2 SLP227 T01610111 $
Notes:

Financial History
Total Freight: 23,035lbs
Average Load: 7,678lbs/flt
Fuel Used: 3,191lbs
Avg. Fuel Used: 1,064lbs/flt
Fuel Expense: $2,776
Avg. Fuel Expense: $925
Avg. Fuel Cost: $0.87/lbs
Total Gross Income: $27,482
Pilot Pay: $687
Total Expenses: $3,124
Total Revenue: $20,656
Average Revenue: $9,160.73